Data No.,UTC Date,UTC Time,Latitude,Longitude,Course(deg),Temp(degC),Sal(psu)
1026,2010/4/2,1:53:00,30-59.9000N,137-47.2400E,174,19.442,34.7161
1027,2010/4/2,1:54:00,30-59.6800N,137-47.2600E,173,19.426,34.7143
1028,2010/4/2,1:55:00,30-59.4700N,137-47.2900E,173,19.405,34.7151
1029,2010/4/2,1:56:00,30-59.2600N,137-47.3200E,172,19.377,34.7142
1030,2010/4/2,1:57:00,30-59.0400N,137-47.3500E,173,19.369,34.7156
1031,2010/4/2,1:58:00,30-58.8300N,137-47.3700E,173,19.372,34.7159
1032,2010/4/2,1:59:00,30-58.6200N,137-47.4000E,173,19.37,34.7159
1033,2010/4/2,2:00:00,30-58.4100N,137-47.4300E,174,19.374,34.716
1034,2010/4/2,2:01:00,30-58.1900N,137-47.4500E,174,19.371,34.7157
1035,2010/4/2,2:02:00,30-57.9800N,137-47.4800E,173,19.368,34.715
1036,2010/4/2,2:03:00,30-57.7700N,137-47.5100E,170,19.378,34.7141
1037,2010/4/2,2:04:00,30-57.5600N,137-47.5600E,170,19.39,34.7149
1038,2010/4/2,2:05:00,30-57.3500N,137-47.6000E,169,19.395,34.7162
1039,2010/4/2,2:06:00,30-57.1400N,137-47.6500E,169,19.403,34.7179
1040,2010/4/2,2:07:00,30-56.9300N,137-47.6900E,169,19.419,34.7188
1041,2010/4/2,2:08:00,30-56.7200N,137-47.7400E,168,19.429,34.7186
1042,2010/4/2,2:09:00,30-56.5100N,137-47.7900E,168,19.443,34.7194
1043,2010/4/2,2:10:00,30-56.3000N,137-47.8300E,168,19.45,34.7186
1044,2010/4/2,2:11:00,30-56.0900N,137-47.8800E,169,19.459,34.7182
1045,2010/4/2,2:12:00,30-55.8800N,137-47.9200E,170,19.471,34.7181
1046,2010/4/2,2:13:00,30-55.6500N,137-47.9700E,169,19.484,34.7177
1047,2010/4/2,2:14:00,30-55.4400N,137-48.0200E,168,19.5,34.7178
1048,2010/4/2,2:15:00,30-55.2300N,137-48.0600E,169,19.522,34.7184
1049,2010/4/2,2:16:00,30-55.0200N,137-48.1100E,169,19.544,34.7197
1050,2010/4/2,2:17:00,30-54.8100N,137-48.1500E,169,19.57,34.7197
1051,2010/4/2,2:18:00,30-54.6000N,137-48.2000E,169,19.589,34.7198
1052,2010/4/2,2:19:00,30-54.3900N,137-48.2400E,169,19.602,34.7197
1053,2010/4/2,2:20:00,30-54.1800N,137-48.2800E,169,19.606,34.7208
1054,2010/4/2,2:21:00,30-53.9700N,137-48.3300E,170,19.622,34.7216
1055,2010/4/2,2:22:00,30-53.7600N,137-48.3700E,170,19.629,34.7218
1056,2010/4/2,2:23:00,30-53.5500N,137-48.4100E,169,19.642,34.7215
1057,2010/4/2,2:24:00,30-53.3400N,137-48.4500E,170,19.649,34.7217
1058,2010/4/2,2:25:00,30-53.1300N,137-48.5000E,169,19.656,34.7211
1059,2010/4/2,2:26:00,30-52.9100N,137-48.5400E,169,19.663,34.7218
1060,2010/4/2,2:27:00,30-52.7100N,137-48.5800E,170,19.674,34.721
1061,2010/4/2,2:28:00,30-52.5000N,137-48.6300E,168,19.69,34.7214
1062,2010/4/2,2:29:00,30-52.2900N,137-48.6800E,168,19.714,34.7223
1064,2010/4/2,2:31:00,30-51.8700N,137-48.7700E,168,19.779,34.7226
1065,2010/4/2,2:32:00,30-51.6600N,137-48.8100E,168,19.824,34.7238
1066,2010/4/2,2:33:00,30-51.4400N,137-48.8600E,168,19.834,34.7246
1067,2010/4/2,2:34:00,30-51.2200N,137-48.9100E,169,19.853,34.7236
1068,2010/4/2,2:35:00,30-51.0100N,137-48.9600E,168,19.877,34.7241
1069,2010/4/2,2:36:00,30-50.8000N,137-49.0100E,169,19.895,34.7235
1070,2010/4/2,2:37:00,30-50.5900N,137-49.0500E,170,19.912,34.7241
1071,2010/4/2,2:38:00,30-50.3800N,137-49.1000E,169,19.924,34.7241
1072,2010/4/2,2:39:00,30-50.1700N,137-49.1400E,169,19.937,34.7241
1073,2010/4/2,2:40:00,30-49.9600N,137-49.1800E,170,19.95,34.7247
1074,2010/4/2,2:41:00,30-49.7500N,137-49.2300E,169,19.956,34.7238
1075,2010/4/2,2:42:00,30-49.5400N,137-49.2700E,169,19.965,34.7244
1076,2010/4/2,2:43:00,30-49.3300N,137-49.3100E,169,19.981,34.7253
1077,2010/4/2,2:44:00,30-49.1200N,137-49.3600E,170,19.994,34.7236
1078,2010/4/2,2:45:00,30-48.9000N,137-49.4000E,170,20.001,34.7234
1079,2010/4/2,2:46:00,30-48.6800N,137-49.4500E,169,20.003,34.7237
1080,2010/4/2,2:47:00,30-48.4800N,137-49.4900E,170,20.01,34.7233
1081,2010/4/2,2:48:00,30-48.2600N,137-49.5300E,171,20.011,34.7237
1082,2010/4/2,2:49:00,30-48.0400N,137-49.5700E,169,20.01,34.7242
1083,2010/4/2,2:50:00,30-47.8300N,137-49.6100E,169,20.007,34.7228
1084,2010/4/2,2:51:00,30-47.6100N,137-49.6600E,169,20.006,34.7222
1085,2010/4/2,2:52:00,30-47.4000N,137-49.7000E,170,20.003,34.7222
1086,2010/4/2,2:53:00,30-47.1900N,137-49.7400E,170,20.005,34.7216
1087,2010/4/2,2:54:00,30-46.9800N,137-49.7900E,169,20.005,34.7217
1088,2010/4/2,2:55:00,30-46.7700N,137-49.8300E,171,20.005,34.7212
1089,2010/4/2,2:56:00,30-46.5400N,137-49.8700E,170,20.004,34.7218
1090,2010/4/2,2:57:00,30-46.3300N,137-49.9100E,170,20.001,34.7212
1091,2010/4/2,2:58:00,30-46.1200N,137-49.9400E,171,19.998,34.7204
1092,2010/4/2,2:59:00,30-45.9200N,137-49.9800E,170,19.998,34.7209
1093,2010/4/2,3:00:00,30-45.7100N,137-50.0200E,170,19.996,34.7211
1095,2010/4/2,3:02:00,30-45.2800N,137-50.1100E,170,20.06,34.723
1096,2010/4/2,3:03:00,30-45.0800N,137-50.1500E,170,20.073,34.7225
1097,2010/4/2,3:04:00,30-44.8600N,137-50.1900E,171,20.08,34.7226
1098,2010/4/2,3:05:00,30-44.6500N,137-50.2300E,170,20.087,34.7225
1099,2010/4/2,3:06:00,30-44.4400N,137-50.2700E,171,20.093,34.7225
1100,2010/4/2,3:07:00,30-44.2300N,137-50.3000E,171,20.098,34.7207
1101,2010/4/2,3:08:00,30-44.0200N,137-50.3400E,170,20.101,34.721
1102,2010/4/2,3:09:00,30-43.8100N,137-50.3800E,172,20.107,34.7197
1104,2010/4/2,3:11:00,30-43.3800N,137-50.4500E,172,20.116,34.7211
1105,2010/4/2,3:12:00,30-43.1700N,137-50.4900E,171,20.106,34.726
1106,2010/4/2,3:13:00,30-42.9500N,137-50.5200E,171,20.108,34.7267
1107,2010/4/2,3:14:00,30-42.7400N,137-50.5600E,173,20.112,34.7282
1108,2010/4/2,3:15:00,30-42.5300N,137-50.5900E,173,20.113,34.7257
1109,2010/4/2,3:16:00,30-42.3200N,137-50.6200E,172,20.114,34.725
1110,2010/4/2,3:17:00,30-42.0900N,137-50.6500E,173,20.12,34.724
1111,2010/4/2,3:18:00,30-41.8800N,137-50.6900E,172,20.124,34.7243
1112,2010/4/2,3:19:00,30-41.6700N,137-50.7200E,173,20.126,34.7231
1113,2010/4/2,3:20:00,30-41.4600N,137-50.7500E,172,20.124,34.7226
1114,2010/4/2,3:21:00,30-41.2500N,137-50.7800E,172,20.123,34.7216
1115,2010/4/2,3:22:00,30-41.0400N,137-50.8100E,172,20.12,34.7241
1116,2010/4/2,3:23:00,30-40.8300N,137-50.8400E,171,20.115,34.7233
1117,2010/4/2,3:24:00,30-40.6100N,137-50.8800E,171,20.102,34.7272
1118,2010/4/2,3:25:00,30-40.4100N,137-50.9100E,170,20.081,34.7294
1119,2010/4/2,3:26:00,30-40.2000N,137-50.9600E,169,20.054,34.7326
1120,2010/4/2,3:27:00,30-39.9900N,137-51.0000E,170,20.007,34.7362
1121,2010/4/2,3:28:00,30-39.7800N,137-51.0500E,169,19.977,34.7411
1122,2010/4/2,3:29:00,30-39.5700N,137-51.0900E,169,19.972,34.7436
1123,2010/4/2,3:30:00,30-39.3600N,137-51.1300E,169,19.961,34.7385
1124,2010/4/2,3:31:00,30-39.1500N,137-51.1800E,170,19.959,34.7409
1125,2010/4/2,3:32:00,30-38.9400N,137-51.2200E,169,19.952,34.7416
1126,2010/4/2,3:33:00,30-38.7300N,137-51.2600E,169,19.947,34.7422
1127,2010/4/2,3:34:00,30-38.5300N,137-51.3000E,170,19.94,34.7427
1128,2010/4/2,3:35:00,30-38.3200N,137-51.3400E,170,19.931,34.7414
1129,2010/4/2,3:36:00,30-38.1100N,137-51.3800E,169,19.928,34.7413
1130,2010/4/2,3:37:00,30-37.9100N,137-51.4200E,170,19.932,34.7414
1131,2010/4/2,3:38:00,30-37.6900N,137-51.4600E,170,19.932,34.7424
1132,2010/4/2,3:39:00,30-37.4700N,137-51.5100E,168,19.936,34.7425
1133,2010/4/2,3:40:00,30-37.2600N,137-51.5600E,169,19.933,34.7451
1134,2010/4/2,3:41:00,30-37.0500N,137-51.6000E,169,19.931,34.7457
1135,2010/4/2,3:42:00,30-36.8400N,137-51.6500E,170,19.93,34.7456
1136,2010/4/2,3:43:00,30-36.6300N,137-51.6800E,169,19.923,34.745
1137,2010/4/2,3:44:00,30-36.4200N,137-51.7300E,168,19.917,34.7454
1138,2010/4/2,3:45:00,30-36.2200N,137-51.7800E,168,19.908,34.7441
1139,2010/4/2,3:46:00,30-36.0100N,137-51.8300E,167,19.903,34.7416
1140,2010/4/2,3:47:00,30-35.8000N,137-51.8900E,167,19.896,34.7404
1141,2010/4/2,3:48:00,30-35.5900N,137-51.9400E,167,19.889,34.7431
1142,2010/4/2,3:49:00,30-35.3800N,137-52.0000E,167,19.895,34.7453
1143,2010/4/2,3:50:00,30-35.1800N,137-52.0500E,166,19.922,34.7502
1144,2010/4/2,3:51:00,30-34.9700N,137-52.1100E,165,19.933,34.7597
1145,2010/4/2,3:52:00,30-34.7600N,137-52.1700E,165,19.963,34.7643
1146,2010/4/2,3:53:00,30-34.5600N,137-52.2300E,166,19.997,34.769
1147,2010/4/2,3:54:00,30-34.3500N,137-52.2900E,165,20.012,34.7726
1148,2010/4/2,3:55:00,30-34.1400N,137-52.3500E,165,20.031,34.7765
1149,2010/4/2,3:56:00,30-33.9400N,137-52.4000E,166,20.053,34.7791
1150,2010/4/2,3:57:00,30-33.7400N,137-52.4600E,165,20.071,34.7803
1151,2010/4/2,3:58:00,30-33.5300N,137-52.5200E,166,20.078,34.7813
1152,2010/4/2,3:59:00,30-33.3300N,137-52.5800E,166,20.083,34.7809
1153,2010/4/2,4:00:00,30-33.1300N,137-52.6300E,166,20.087,34.7803
1154,2010/4/2,4:01:00,30-32.9100N,137-52.6900E,167,20.085,34.7792
1155,2010/4/2,4:02:00,30-32.7100N,137-52.7500E,166,20.084,34.7783
1156,2010/4/2,4:03:00,30-32.5100N,137-52.8000E,166,20.076,34.7762
1157,2010/4/2,4:04:00,30-32.3000N,137-52.8600E,166,20.072,34.7724
1158,2010/4/2,4:05:00,30-32.1000N,137-52.9100E,167,20.065,34.7728
1159,2010/4/2,4:06:00,30-31.9000N,137-52.9600E,167,20.051,34.7718
1160,2010/4/2,4:07:00,30-31.6900N,137-53.0100E,167,20.038,34.7719
1161,2010/4/2,4:08:00,30-31.4800N,137-53.0700E,166,20.018,34.7701
1162,2010/4/2,4:09:00,30-31.2800N,137-53.1200E,167,20.001,34.7672
1163,2010/4/2,4:10:00,30-31.0800N,137-53.1700E,167,19.986,34.7655
1164,2010/4/2,4:11:00,30-30.8700N,137-53.2300E,165,19.977,34.7646
1165,2010/4/2,4:12:00,30-30.6700N,137-53.2900E,166,19.958,34.7639
1166,2010/4/2,4:13:00,30-30.4700N,137-53.3400E,166,19.917,34.7612
1167,2010/4/2,4:14:00,30-30.2600N,137-53.4000E,166,19.896,34.7602
1168,2010/4/2,4:15:00,30-30.0600N,137-53.4600E,165,19.902,34.7573
1169,2010/4/2,4:16:00,30-29.8500N,137-53.5200E,166,19.906,34.7588
1170,2010/4/2,4:17:00,30-29.6500N,137-53.5800E,166,19.909,34.7608
1171,2010/4/2,4:18:00,30-29.4500N,137-53.6300E,165,19.914,34.7613
1172,2010/4/2,4:19:00,30-29.2500N,137-53.6900E,167,19.912,34.7609
1173,2010/4/2,4:20:00,30-29.0500N,137-53.7400E,168,19.913,34.7579
1174,2010/4/2,4:21:00,30-28.8500N,137-53.7900E,166,19.912,34.7608
1175,2010/4/2,4:22:00,30-28.6300N,137-53.8500E,166,19.92,34.7516
1176,2010/4/2,4:23:00,30-28.4400N,137-53.9000E,167,19.919,34.7634
1177,2010/4/2,4:24:00,30-28.2300N,137-53.9500E,166,19.904,34.7651
1178,2010/4/2,4:25:00,30-28.0300N,137-54.0100E,164,19.821,34.7711
1179,2010/4/2,4:26:00,30-27.8300N,137-54.0800E,164,19.802,34.7683
1180,2010/4/2,4:27:00,30-27.6300N,137-54.1400E,166,19.795,34.7638
1181,2010/4/2,4:28:00,30-27.4300N,137-54.1900E,166,19.79,34.7618
1182,2010/4/2,4:29:00,30-27.2300N,137-54.2500E,165,19.796,34.7564
1183,2010/4/2,4:30:00,30-27.0200N,137-54.3100E,165,19.798,34.762
1184,2010/4/2,4:31:00,30-26.8300N,137-54.3600E,166,19.801,34.7614
1185,2010/4/2,4:32:00,30-26.6200N,137-54.4200E,166,19.8,34.7606
1186,2010/4/2,4:33:00,30-26.4100N,137-54.4700E,166,19.797,34.7621
1187,2010/4/2,4:34:00,30-26.2100N,137-54.5300E,165,19.802,34.7623
1188,2010/4/2,4:35:00,30-26.0200N,137-54.5900E,165,19.807,34.762
1189,2010/4/2,4:36:00,30-25.8100N,137-54.6500E,166,19.8,34.7626
1190,2010/4/2,4:37:00,30-25.6100N,137-54.7000E,167,19.794,34.7623
1191,2010/4/2,4:38:00,30-25.4100N,137-54.7600E,167,19.785,34.764
1192,2010/4/2,4:39:00,30-25.2000N,137-54.8100E,166,19.777,34.7627
1193,2010/4/2,4:40:00,30-25.0000N,137-54.8700E,165,19.773,34.7641
1194,2010/4/2,4:41:00,30-24.8000N,137-54.9300E,164,19.791,34.7631
1195,2010/4/2,4:42:00,30-24.5900N,137-55.0000E,164,19.784,34.7632
1196,2010/4/2,4:43:00,30-24.3900N,137-55.0600E,164,19.783,34.7636
1197,2010/4/2,4:44:00,30-24.1700N,137-55.1300E,165,19.787,34.7635
1198,2010/4/2,4:45:00,30-23.9700N,137-55.1900E,165,19.79,34.7622
1199,2010/4/2,4:46:00,30-23.7700N,137-55.2500E,165,19.785,34.7633
1200,2010/4/2,4:47:00,30-23.5700N,137-55.3100E,165,19.785,34.764
1201,2010/4/2,4:48:00,30-23.3700N,137-55.3700E,165,19.79,34.7626
1202,2010/4/2,4:49:00,30-23.1600N,137-55.4200E,167,19.79,34.7634
1203,2010/4/2,4:50:00,30-22.9600N,137-55.4700E,169,19.788,34.763
1204,2010/4/2,4:51:00,30-22.7500N,137-55.5100E,169,19.785,34.7633
1205,2010/4/2,4:52:00,30-22.5400N,137-55.5600E,169,19.785,34.7638
1206,2010/4/2,4:53:00,30-22.3400N,137-55.6000E,168,19.781,34.7531
1207,2010/4/2,4:54:00,30-22.1300N,137-55.6500E,168,19.776,34.7638
1208,2010/4/2,4:55:00,30-21.9300N,137-55.7000E,168,19.777,34.7624
1209,2010/4/2,4:56:00,30-21.7200N,137-55.7500E,168,19.777,34.7617
1210,2010/4/2,4:57:00,30-21.5100N,137-55.7900E,170,19.772,34.7574
1211,2010/4/2,4:58:00,30-21.3000N,137-55.8300E,170,19.776,34.7627
1212,2010/4/2,4:59:00,30-21.1000N,137-55.8700E,170,19.781,34.7616
1213,2010/4/2,5:00:00,30-20.8900N,137-55.9100E,169,19.783,34.7617
1214,2010/4/2,5:01:00,30-20.6800N,137-55.9600E,168,19.791,34.7625
1215,2010/4/2,5:02:00,30-20.4700N,137-56.0100E,168,19.791,34.7611
1216,2010/4/2,5:03:00,30-20.2600N,137-56.0500E,170,19.795,34.7625
1217,2010/4/2,5:04:00,30-20.0500N,137-56.0900E,169,19.792,34.7625
1218,2010/4/2,5:05:00,30-19.8300N,137-56.1300E,170,19.799,34.7628
1219,2010/4/2,5:06:00,30-19.6200N,137-56.1800E,170,19.803,34.7633
1220,2010/4/2,5:07:00,30-19.4100N,137-56.2100E,170,19.803,34.7632
1221,2010/4/2,5:08:00,30-19.2000N,137-56.2600E,170,19.803,34.7644
1222,2010/4/2,5:09:00,30-18.9900N,137-56.3000E,169,19.813,34.7639
1223,2010/4/2,5:10:00,30-18.7800N,137-56.3400E,169,19.817,34.7602
1224,2010/4/2,5:11:00,30-18.5700N,137-56.3800E,170,19.818,34.7649
1225,2010/4/2,5:12:00,30-18.3600N,137-56.4200E,169,19.823,34.7624
1226,2010/4/2,5:13:00,30-18.1500N,137-56.4700E,168,19.824,34.7639
1227,2010/4/2,5:14:00,30-17.9400N,137-56.5200E,169,19.833,34.7649
1228,2010/4/2,5:15:00,30-17.7300N,137-56.5600E,170,19.823,34.7657
1229,2010/4/2,5:16:00,30-17.5200N,137-56.6000E,169,19.824,34.7657
1230,2010/4/2,5:17:00,30-17.3100N,137-56.6400E,170,19.828,34.7651
1231,2010/4/2,5:18:00,30-17.1000N,137-56.6800E,170,19.834,34.7638
1232,2010/4/2,5:19:00,30-16.8900N,137-56.7300E,167,19.836,34.7646
1233,2010/4/2,5:20:00,30-16.6900N,137-56.7800E,169,19.837,34.7651
1234,2010/4/2,5:21:00,30-16.4800N,137-56.8200E,170,19.838,34.7621
1235,2010/4/2,5:22:00,30-16.2700N,137-56.8600E,170,19.838,34.7659
1236,2010/4/2,5:23:00,30-16.0600N,137-56.9000E,170,19.839,34.7642
1237,2010/4/2,5:24:00,30-15.8500N,137-56.9400E,171,19.837,34.7657
1238,2010/4/2,5:25:00,30-15.6400N,137-56.9800E,168,19.838,34.7649
1239,2010/4/2,5:26:00,30-15.4300N,137-57.0200E,169,19.838,34.7642
1240,2010/4/2,5:27:00,30-15.2100N,137-57.0700E,169,19.834,34.7631
1241,2010/4/2,5:28:00,30-15.0000N,137-57.1100E,169,19.828,34.7637
1242,2010/4/2,5:29:00,30-14.7900N,137-57.1600E,169,19.826,34.7635
1243,2010/4/2,5:30:00,30-14.5800N,137-57.2000E,169,19.826,34.7628
1244,2010/4/2,5:31:00,30-14.3700N,137-57.2500E,170,19.829,34.7631
1245,2010/4/2,5:32:00,30-14.1600N,137-57.2900E,169,19.833,34.7632
1246,2010/4/2,5:33:00,30-13.9500N,137-57.3400E,169,19.836,34.7629
1247,2010/4/2,5:34:00,30-13.7300N,137-57.3800E,169,19.829,34.7634
1248,2010/4/2,5:35:00,30-13.5200N,137-57.4300E,169,19.832,34.7625
1249,2010/4/2,5:36:00,30-13.3100N,137-57.4800E,169,19.836,34.7639
1250,2010/4/2,5:37:00,30-13.1000N,137-57.5300E,167,19.849,34.7634
1252,2010/4/2,5:39:00,30-12.6700N,137-57.6200E,169,19.857,34.766
1253,2010/4/2,5:40:00,30-12.4600N,137-57.6600E,171,19.865,34.7628
1254,2010/4/2,5:41:00,30-12.2500N,137-57.7000E,170,19.875,34.7661
1255,2010/4/2,5:42:00,30-12.0300N,137-57.7400E,171,19.873,34.7492
1256,2010/4/2,5:43:00,30-11.8200N,137-57.7800E,170,19.864,34.7669
1257,2010/4/2,5:44:00,30-11.6000N,137-57.8200E,170,19.861,34.767
1258,2010/4/2,5:45:00,30-11.3800N,137-57.8600E,170,19.847,34.7677
1259,2010/4/2,5:46:00,30-11.1600N,137-57.8900E,172,19.827,34.7664
1260,2010/4/2,5:47:00,30-10.9400N,137-57.9300E,171,19.81,34.7644
1261,2010/4/2,5:48:00,30-10.7000N,137-57.9800E,170,19.806,34.7639
1262,2010/4/2,5:49:00,30-10.4900N,137-58.0200E,170,19.783,34.7652
1263,2010/4/2,5:50:00,30-10.2700N,137-58.0700E,169,19.76,34.7678
1264,2010/4/2,5:51:00,30-10.0500N,137-58.1200E,168,19.722,34.7678
1265,2010/4/2,5:52:00,30-09.8400N,137-58.1600E,170,19.722,34.7643
1266,2010/4/2,5:53:00,30-09.6200N,137-58.2100E,169,19.732,34.7629
1267,2010/4/2,5:54:00,30-09.4000N,137-58.2500E,169,19.719,34.7648
1268,2010/4/2,5:55:00,30-09.1800N,137-58.3000E,170,19.702,34.7639
1269,2010/4/2,5:56:00,30-08.9600N,137-58.3400E,170,19.691,34.7639
1270,2010/4/2,5:57:00,30-08.7400N,137-58.3800E,169,19.669,34.7621
1271,2010/4/2,5:58:00,30-08.5100N,137-58.4300E,169,19.684,34.7617
1272,2010/4/2,5:59:00,30-08.2900N,137-58.4800E,168,19.706,34.7634
1273,2010/4/2,6:00:00,30-08.0700N,137-58.5300E,167,19.776,34.7629
1274,2010/4/2,6:01:00,30-07.8400N,137-58.5900E,168,19.814,34.7641
1275,2010/4/2,6:02:00,30-07.6200N,137-58.6400E,167,19.848,34.7651
1276,2010/4/2,6:03:00,30-07.4000N,137-58.7000E,168,19.858,34.7588
1277,2010/4/2,6:04:00,30-07.1700N,137-58.7500E,168,19.86,34.7691
1278,2010/4/2,6:05:00,30-06.9500N,137-58.8000E,168,19.867,34.7692
1279,2010/4/2,6:06:00,30-06.7200N,137-58.8600E,167,19.868,34.7694
1280,2010/4/2,6:07:00,30-06.5000N,137-58.9100E,167,19.87,34.769
1281,2010/4/2,6:08:00,30-06.2700N,137-58.9700E,168,19.876,34.77
1282,2010/4/2,6:09:00,30-06.0500N,137-59.0200E,168,19.876,34.7703
1283,2010/4/2,6:10:00,30-05.8100N,137-59.0800E,167,19.87,34.77
1284,2010/4/2,6:11:00,30-05.5900N,137-59.1400E,167,19.864,34.7698
1285,2010/4/2,6:12:00,30-05.3700N,137-59.1900E,167,19.858,34.7695
1286,2010/4/2,6:13:00,30-05.1400N,137-59.2500E,168,19.852,34.77
1287,2010/4/2,6:14:00,30-04.9200N,137-59.3000E,167,19.838,34.7698
1288,2010/4/2,6:15:00,30-04.6900N,137-59.3600E,168,19.828,34.7676
1289,2010/4/2,6:16:00,30-04.4700N,137-59.4100E,168,19.825,34.7691
1290,2010/4/2,6:17:00,30-04.2400N,137-59.4700E,168,19.808,34.7677
1291,2010/4/2,6:18:00,30-04.0200N,137-59.5200E,167,19.786,34.7673
1292,2010/4/2,6:19:00,30-03.7900N,137-59.5900E,166,19.789,34.7662
1293,2010/4/2,6:20:00,30-03.5700N,137-59.6500E,166,19.788,34.7667
1294,2010/4/2,6:21:00,30-03.3500N,137-59.7100E,167,19.797,34.7677
1295,2010/4/2,6:22:00,30-03.1300N,137-59.7700E,166,19.798,34.7662
1296,2010/4/2,6:23:00,30-02.9000N,137-59.8300E,166,19.789,34.7665
1297,2010/4/2,6:24:00,30-02.6800N,137-59.8900E,166,19.789,34.7651
1298,2010/4/2,6:25:00,30-02.4600N,137-59.9500E,166,19.799,34.765
1299,2010/4/2,6:26:00,30-02.2400N,138-00.0200E,165,19.824,34.766
1300,2010/4/2,6:27:00,30-02.0100N,138-00.0800E,166,19.854,34.7668
1301,2010/4/2,6:28:00,30-01.7800N,138-00.1400E,167,19.876,34.7664
1302,2010/4/2,6:29:00,30-01.5600N,138-00.2000E,165,19.89,34.7694
1303,2010/4/2,6:30:00,30-01.3400N,138-00.2700E,166,19.903,34.7698
1304,2010/4/2,6:31:00,30-01.1000N,138-00.3400E,166,19.92,34.7709
1305,2010/4/2,6:32:00,30-00.8700N,138-00.4000E,165,19.929,34.7711
1306,2010/4/2,6:33:00,30-00.6600N,138-00.4600E,167,19.933,34.7711
1307,2010/4/2,6:34:00,30-00.4300N,138-00.5200E,167,19.937,34.773
1308,2010/4/2,6:35:00,30-00.2100N,138-00.5700E,168,19.941,34.7719
1309,2010/4/2,6:36:00,29-59.9800N,138-00.6200E,169,19.95,34.7721
1310,2010/4/2,6:37:00,29-59.7600N,138-00.6700E,168,19.956,34.7725
1311,2010/4/2,6:38:00,29-59.5400N,138-00.7300E,168,19.954,34.7743
1312,2010/4/2,6:39:00,29-59.3100N,138-00.7800E,168,19.954,34.7737
1313,2010/4/2,6:40:00,29-59.0900N,138-00.8400E,168,19.958,34.7748
1314,2010/4/2,6:41:00,29-58.8700N,138-00.8900E,167,19.958,34.7759
1315,2010/4/2,6:42:00,29-58.6400N,138-00.9500E,167,19.963,34.7749
1316,2010/4/2,6:43:00,29-58.4200N,138-01.0000E,168,19.962,34.7755
1317,2010/4/2,6:44:00,29-58.2000N,138-01.0500E,169,19.968,34.7738
1318,2010/4/2,6:45:00,29-57.9700N,138-01.1100E,168,19.968,34.7766
1319,2010/4/2,6:46:00,29-57.7500N,138-01.1600E,169,19.966,34.7761
1320,2010/4/2,6:47:00,29-57.5300N,138-01.2000E,169,19.967,34.7756
1321,2010/4/2,6:48:00,29-57.3000N,138-01.2500E,169,19.964,34.7756
1322,2010/4/2,6:49:00,29-57.0800N,138-01.3100E,168,19.956,34.7753
1323,2010/4/2,6:50:00,29-56.8600N,138-01.3600E,168,19.954,34.7745
1324,2010/4/2,6:51:00,29-56.6400N,138-01.4100E,169,19.951,34.7721
1325,2010/4/2,6:52:00,29-56.4200N,138-01.4600E,169,19.946,34.7728
1326,2010/4/2,6:53:00,29-56.1800N,138-01.5100E,168,19.942,34.7747
1327,2010/4/2,6:54:00,29-55.9600N,138-01.5600E,169,19.941,34.7751
1328,2010/4/2,6:55:00,29-55.7400N,138-01.6100E,168,19.928,34.7758
1329,2010/4/2,6:56:00,29-55.5200N,138-01.6600E,168,19.922,34.7741
1330,2010/4/2,6:57:00,29-55.3100N,138-01.7100E,168,19.917,34.774
1331,2010/4/2,6:58:00,29-55.0900N,138-01.7700E,167,19.91,34.7724
1332,2010/4/2,6:59:00,29-54.8700N,138-01.8200E,169,19.902,34.7716
1333,2010/4/2,7:00:00,29-54.6600N,138-01.8700E,168,19.895,34.7714
1334,2010/4/2,7:01:00,29-54.4400N,138-01.9200E,168,19.89,34.7693
1335,2010/4/2,7:02:00,29-54.2300N,138-01.9700E,167,19.885,34.7675
1336,2010/4/2,7:03:00,29-54.0100N,138-02.0300E,167,19.882,34.767
1337,2010/4/2,7:04:00,29-53.7900N,138-02.0800E,168,19.878,34.7648
1338,2010/4/2,7:05:00,29-53.5700N,138-02.1200E,169,19.876,34.7641
1339,2010/4/2,7:06:00,29-53.3600N,138-02.1700E,168,19.888,34.7613
1340,2010/4/2,7:07:00,29-53.1400N,138-02.2300E,168,19.905,34.7621
1341,2010/4/2,7:08:00,29-52.9200N,138-02.2800E,167,19.907,34.7634
1342,2010/4/2,7:09:00,29-52.7000N,138-02.3300E,168,19.911,34.7628
1343,2010/4/2,7:10:00,29-52.4800N,138-02.3800E,167,19.914,34.7635
1344,2010/4/2,7:11:00,29-52.2700N,138-02.4400E,168,19.92,34.7647
1345,2010/4/2,7:12:00,29-52.0500N,138-02.4900E,169,19.92,34.7633
1346,2010/4/2,7:13:00,29-51.8300N,138-02.5300E,169,19.928,34.7643
1347,2010/4/2,7:14:00,29-51.5900N,138-02.5900E,168,19.929,34.765
1348,2010/4/2,7:15:00,29-51.3700N,138-02.6400E,168,19.93,34.7637
1349,2010/4/2,7:16:00,29-51.1500N,138-02.6900E,168,19.937,34.7639
1350,2010/4/2,7:17:00,29-50.9300N,138-02.7400E,168,19.939,34.7633
1351,2010/4/2,7:18:00,29-50.7000N,138-02.7900E,168,19.937,34.7643
1352,2010/4/2,7:19:00,29-50.4900N,138-02.8400E,168,19.938,34.7654
1353,2010/4/2,7:20:00,29-50.2600N,138-02.8900E,168,19.947,34.7652
1354,2010/4/2,7:21:00,29-50.0300N,138-02.9400E,168,19.947,34.7649
1355,2010/4/2,7:22:00,29-49.8100N,138-02.9900E,169,19.95,34.7669
1356,2010/4/2,7:23:00,29-49.5900N,138-03.0400E,169,19.95,34.768
1357,2010/4/2,7:24:00,29-49.3700N,138-03.0900E,168,19.954,34.7679
1358,2010/4/2,7:25:00,29-49.1400N,138-03.1400E,169,19.957,34.7685
1359,2010/4/2,7:26:00,29-48.9200N,138-03.1900E,169,19.955,34.7575
1360,2010/4/2,7:27:00,29-48.7000N,138-03.2400E,168,19.953,34.7685
1361,2010/4/2,7:28:00,29-48.4700N,138-03.2900E,168,19.943,34.7678
1362,2010/4/2,7:29:00,29-48.2500N,138-03.3300E,169,19.938,34.7664
1363,2010/4/2,7:30:00,29-48.0300N,138-03.3800E,169,19.933,34.7671
1364,2010/4/2,7:31:00,29-47.8100N,138-03.4300E,170,19.929,34.7679
1365,2010/4/2,7:32:00,29-47.5800N,138-03.4700E,170,19.924,34.7656
1366,2010/4/2,7:33:00,29-47.3600N,138-03.5200E,169,19.91,34.7636
1367,2010/4/2,7:34:00,29-47.1300N,138-03.5700E,168,19.904,34.7643
1368,2010/4/2,7:35:00,29-46.9200N,138-03.6200E,168,19.904,34.7628
1369,2010/4/2,7:36:00,29-46.6700N,138-03.6700E,170,19.91,34.7621
1370,2010/4/2,7:37:00,29-46.4500N,138-03.7200E,168,19.916,34.7655
1371,2010/4/2,7:38:00,29-46.2300N,138-03.7700E,169,19.918,34.7646
1372,2010/4/2,7:39:00,29-46.0100N,138-03.8200E,169,19.916,34.7645
1373,2010/4/2,7:40:00,29-45.7800N,138-03.8700E,168,19.919,34.765
1374,2010/4/2,7:41:00,29-45.5600N,138-03.9200E,169,19.921,34.7658
1375,2010/4/2,7:42:00,29-45.3400N,138-03.9600E,169,19.92,34.7652
1376,2010/4/2,7:43:00,29-45.1100N,138-04.0100E,169,19.928,34.7631
1377,2010/4/2,7:44:00,29-44.8900N,138-04.0600E,169,19.94,34.7651
1378,2010/4/2,7:45:00,29-44.6700N,138-04.1100E,168,19.951,34.7667
1379,2010/4/2,7:46:00,29-44.4400N,138-04.1600E,168,19.964,34.7666
1380,2010/4/2,7:47:00,29-44.2200N,138-04.2100E,168,19.973,34.768
1381,2010/4/2,7:48:00,29-44.0000N,138-04.2600E,169,19.981,34.7695
1382,2010/4/2,7:49:00,29-43.7700N,138-04.3100E,169,19.982,34.7698
1383,2010/4/2,7:50:00,29-43.5500N,138-04.3600E,169,19.984,34.7707
1384,2010/4/2,7:51:00,29-43.3200N,138-04.4100E,167,19.976,34.7709
1385,2010/4/2,7:52:00,29-43.1000N,138-04.4600E,168,19.987,34.7713
1386,2010/4/2,7:53:00,29-42.8800N,138-04.5100E,169,19.996,34.7712
1387,2010/4/2,7:54:00,29-42.6500N,138-04.5600E,169,20.001,34.7723